THORAD DELTA 1 DEB, 13528

Orbit data source: Space-Track

THORAD DELTA 1 DEB, 13528 is space debris in LEO originally from a launch on Fri, 15 Nov 1974 UTC launched from the Air Force Western Test Range (AFWTR). Debris objects in space refer to the collection of defunct objects orbiting the Earth. Examples of debris include non-operational satellites, rocket bodies, and fragments generated from explosions, collisions, or faulty payload assembly.

Loading next visibility...
Identifier
13528, 1974-089EP
Orbit
LEO
Country
Flag of USUS
Related business
Manufacturer
Unknown
Mission
Spacecraft
Bus & Motor
Unknown
Mass
Unknown
Launch date (UTC)
1974-11-15 (51 years ago)
Launch vehicle
Unknown
Launch site
Air Force Western Test Range (AFWTR)
Object type
Payload
Rocket body
Debris
Shape & HBR
Unknown shape, 0.1 m
Radar Cross Section
Small (<0.1 m²)

Expand to show TLE details & history
Last TLE update: 1 day ago

TLE from 1 day ago
0 THORAD DELTA 1 DEB
1 13528U 74089EP  26070.48796274  .00000520  00000-0  25291-2 0  9997
2 13528 103.1439  70.1699 0075038 256.3497 259.3177 12.79382965117266
Epoch: 2026-03-11T11:42Z
TLE epoch observation values (Epoch: 2026-03-11T11:42:39.980Z)
Latitude
24.50026°
Longitude
-88.56964°
Altitude
1,357.751 km
Speed
7.176 km/s
True Right ascension
17h 04m 59s
True Declination
24° 22' 51"
Sunlit
Object was in daylight at epoch
Visualization orbit readout
Latitude
Unknown
Longitude
Unknown
Altitude
Unknown
Speed
Unknown
Apparent Right ascension
Unknown
Apparent Declination
Unknown
Sunlit
N/A
Visualization observer readout
Local Sidereal Time
20:33:38
Azimuth
Unknown
Elevation
Unknown
Doppler factor
Unknown
Orbital elements
Apogee altitude
1,399.475 km
Perigee altitude
1,283.621 km
Semi-major axis
7,719.685 km
Eccentricity
0.0075
Inclination
103.1439°
RAAN
70.1699°
Arg. of periapsis
256.3497°
True anomaly
258.47423°
Mean anomaly
259.3177°
Eccentric anomaly
258.89581°
Mean motion
3.19995 °/min
Orbital period
112.5 mins
BSTAR
0.0025291
Loading maneuver chart data...
Computing Atmospheric mass density...
Loading historical data...
Loading historical data...
Loading historical data...
Loading historical data...
Loading historical data...
Loading historical data...
Loading historical data...

Documentation

Showing up to 5 results
|